Regional Weather Roundup
Issued by NWS Burlington, VT

Home | Current Version | Previous Version | Text Only | Print | Product List | Glossary On
Versions: 1 2 3 4 5 6 7 8 9 10 11 12 13 14 15 16 17 18 19 20 21 22 23 24 25 26 27 28 29 30 31 32 33 34 35 36 37 38 39 40 41 42 43 44 45 46 47 48 49 50
000
ASUS41 KBTV 290610
RWRBTV
VERMONT REGIONAL WEATHER ROUNDUP
NATIONAL WEATHER SERVICE BURLINGTON VT
100 AM EST THU JAN 29 2015

NOTE: "FAIR" INDICATES FEW OR NO CLOUDS BELOW 12,000 FEET WITH NO
SIGNIFICANT WEATHER AND/OR OBSTRUCTIONS TO VISIBILITY.

* THESE REPORTS ARE NOT UNDER NWS QUALITY CONTROL AND/OR DO NOT
  REPORT WEATHER SUCH AS PRECIPITATION AND FOG.

VTZ001>019-290700-
_____VERMONT_____


CITY           SKY/WX    TMP DP  RH WIND       PRES   REMARKS
BURLINGTON     PTCLDY     2  -6  69 SE6       30.31S
6HR MIN TEMP:   2; 6HR MAX TEMP:  11;

MONTPELIER     MOCLDY    -5  -9  83 S3        30.27S
6HR MIN TEMP:  -7; 6HR MAX TEMP:   5;

MORRISVILLE    PTCLDY   -10 -16  74 CALM      30.29S
6HR MIN TEMP: -10; 6HR MAX TEMP:   6;

ST. JOHNSBURY*   N/A     -7 -12  79 MISG      30.29R
6HR MIN TEMP:  -7; 6HR MAX TEMP:   8;

MIDDLEBURY*    FAIR       0  -4  81 CALM      30.30R
6HR MIN TEMP:   0; 6HR MAX TEMP:  15;

RUTLAND*       PTCLDY    -2  -9  71 SE8       30.27R
6HR MIN TEMP:  -2; 6HR MAX TEMP:  10;

SPRINGFIELD    PTCLDY    -4  -7  87 CALM      30.30R
6HR MIN TEMP:  -4; 6HR MAX TEMP:  14;

HIGHGATE*      FAIR       1  -6  70 SE3       30.32S
6HR MIN TEMP:   0; 6HR MAX TEMP:   7;

NEWPORT*       FAIR      -9 -13  82 SW5       30.27S
6HR MIN TEMP: -11; 6HR MAX TEMP:   5;

BENNINGTON     PTCLDY     0  -5  79 CALM      30.28R
6HR MIN TEMP:  -4; 6HR MAX TEMP:  15;

SUTTON*          N/A     -2 N/A N/A MISG        N/A

_____LAKE CHAMPLAIN_____


CITY           SKY/WX    TMP DP  RH WIND       PRES   REMARKS

$$

NYZ007-026>031-035-052-083-290700-
_____NORTHERN NEW YORK_____


CITY           SKY/WX    TMP DP  RH WIND       PRES   REMARKS
PLATTSBURGH    MOCLDY     0  -4  83 CALM      30.31S
6HR MIN TEMP:  -1; 6HR MAX TEMP:   9;

SARANAC LAKE   PTCLDY   -14 -19  79 CALM      30.19F
6HR MIN TEMP: -15; 6HR MAX TEMP:   6;

MASSENA        PTCLDY    -3  -9  75 CALM      30.32S
6HR MIN TEMP:  -4; 6HR MAX TEMP:   9;

OGDENSBURG*    CLEAR      1  -6  71 S3        30.29S
POTSDAM*       CLEAR     10  -2  56 SW6       30.29R
WATERTOWN      PTCLDY    -2  -7  79 CALM      30.30F
6HR MIN TEMP:  -5; 6HR MAX TEMP:  13;

FT DRUM        PTCLDY     2  -7  64 SE13      30.27S WCI -15
6HR MIN TEMP:   2; 6HR MAX TEMP:  11;

ALBANY         PTCLDY     3  -4  72 CALM      30.35R
6HR MIN TEMP:   1; 6HR MAX TEMP:  19;

GLENS FALLS    PTCLDY    -6 -10  83 SW3       30.33R
6HR MIN TEMP:  -6; 6HR MAX TEMP:   6;


$$
NHZ002-005-011-290700-
_____NEW HAMPSHIRE_____


CITY           SKY/WX    TMP DP  RH WIND       PRES   REMARKS
LEBANON        PTCLDY    -5 -10  79 CALM      30.29R
6HR MIN TEMP:  -6; 6HR MAX TEMP:  16;

KEENE          CLEAR     -2  -6  84 CALM      30.27R
6HR MIN TEMP:  -2; 6HR MAX TEMP:  16;

MT WASHINGTON  PTCLDY     9 -17  31 N22         N/A  WCI -11
6HR MIN TEMP:   5; 6HR MAX TEMP:  15;

PLYMOUTH       FAIR      17   0  48 W14G21    30.23R WCI   3
6HR MIN TEMP:  12; 6HR MAX TEMP:  17;

WHITEFIELD     PTCLDY   -17 -22  78 CALM      30.26R
6HR MIN TEMP: -17; 6HR MAX TEMP:   0;


$$

_____REGIONAL QUEBEC LOCATIONS_____


CITY           SKY/WX    TMP DP  RH WIND       PRES   REMARKS
MONTREAL       CLEAR      9  -6  52 SW7       30.30S
QUEBEC CITY    CLEAR      7  -2  66 SW15      30.25R WCI -11
SHERBROOKE     CLEAR    -11 -15  84 E5        30.27R

_____REGIONAL ONTARIO LOCATIONS_____


CITY           SKY/WX    TMP DP  RH WIND       PRES   REMARKS
OTTAWA         CLEAR      3  -6  66 S5        30.27S

______KEY______
VSB  - VISIBILITY IN MILES
WCI  - WIND CHILL INDEX
HX   - HEAT INDEX
$$
NNNN


USA.gov is the U.S. government's official web portal to all federal, state and local government web resources and services.